Theta_e
339 335 337 339 340 342 341 340 339 337 335 334 333 332 329 322 319 319 317 316 316 315 315 313 314 317 317 318 318 318 319 319 319 317 318 324 326 326 326 326 325 327 328 328 328 328 327 326 325 324 323 323 323 324 326 328 328 328 328 327 328 327 327 326 326 324 324 325 324 323 323 323 324 324 324 323 322 322 322 321 321 322 324 325 325
337 334 336 339 340 341 341 340 339 337 335 334 332 332 329 321 317 316 315 316 315 314 314 314 315 316 317 319 320 319 320 320 320 316 314 319 325 325 325 325 324 325 326 326 326 326 325 324 324 324 323 323 323 323 325 327 327 327 328 328 327 328 327 326 325 324 324 324 323 323 324 323 323 322 322 322 321 320 319 319 319 319 321 323 325
336 335 337 338 339 340 340 339 338 335 334 333 332 332 329 321 316 315 315 315 314 313 314 315 317 318 318 320 321 320 320 320 320 316 312 314 321 324 325 325 324 325 325 324 324 323 322 323 322 322 321 321 321 320 323 325 326 327 327 327 327 327 326 326 325 324 325 325 324 325 324 323 322 321 321 321 320 319 318 318 318 319 319 320 323
335 336 335 336 339 338 337 336 335 333 333 332 332 332 327 319 314 314 314 313 313 315 316 317 318 319 319 321 321 320 320 321 321 318 316 316 317 319 320 322 323 324 324 324 323 322 321 321 320 319 319 319 320 320 322 325 326 326 326 327 328 327 327 326 325 325 325 326 326 325 324 322 322 322 322 322 321 319 319 318 318 319 320 320 321
334 335 334 335 336 335 334 334 334 333 333 332 331 331 325 316 313 314 314 314 316 317 317 318 319 320 320 320 321 321 321 322 321 319 321 321 319 318 318 318 317 316 316 318 317 318 318 318 318 318 317 319 321 321 323 324 325 325 326 326 327 327 326 326 325 325 325 325 325 325 324 323 323 323 322 322 321 320 320 320 319 318 319 320 321
332 334 333 334 334 332 333 334 333 332 333 332 331 329 321 315 314 314 314 315 317 318 318 319 319 318 319 318 318 319 319 321 319 316 318 321 321 321 320 317 314 311 310 311 312 315 317 316 316 315 315 318 320 321 322 323 324 325 325 326 327 327 326 325 325 325 325 325 324 323 322 322 323 322 321 320 320 320 320 320 320 319 318 318 319
332 332 332 333 333 332 333 333 333 332 332 331 330 326 318 314 314 314 313 314 316 319 319 319 319 318 317 316 316 316 318 319 315 310 311 315 317 317 316 315 314 313 313 315 316 317 318 317 316 314 315 318 319 320 321 322 323 323 324 325 325 324 324 324 324 324 324 323 322 321 321 321 322 321 320 320 319 319 319 320 320 321 320 320 319
332 332 332 332 332 332 332 332 332 332 331 331 328 322 317 315 315 314 314 313 314 317 319 319 320 319 318 318 318 317 319 317 310 306 307 308 310 311 312 314 315 315 316 318 319 319 318 318 317 315 317 320 319 320 321 320 320 322 322 322 322 321 321 321 322 323 322 321 321 320 320 321 321 320 319 318 318 318 320 320 320 320 320 320 320
332 333 332 333 332 332 331 331 332 331 331 330 326 321 318 317 316 314 315 314 313 316 319 319 320 319 319 319 319 319 319 313 307 307 307 306 306 307 310 314 315 316 316 317 318 318 318 317 317 317 319 321 320 320 320 319 320 321 321 321 320 319 319 320 320 321 321 321 321 321 320 320 319 319 318 318 319 318 316 314 312 311 312 313 314
332 332 332 331 332 331 331 331 331 331 331 330 326 323 322 320 318 316 317 317 314 314 317 319 320 320 319 319 319 319 316 310 307 307 307 307 307 306 307 310 312 313 315 316 317 317 317 316 316 316 318 319 319 319 318 316 317 320 321 321 320 320 319 319 320 320 320 321 321 320 319 318 318 318 319 319 319 314 309 307 306 305 308 311 313
331 332 331 330 330 331 331 330 331 331 330 329 326 326 325 323 321 319 319 321 318 314 315 317 319 320 320 318 317 316 312 308 307 308 307 307 306 305 306 308 310 312 314 315 316 316 315 315 314 315 316 317 317 317 317 317 317 318 319 319 319 319 318 317 319 320 319 319 319 318 318 317 316 316 318 319 316 309 305 304 304 305 308 313 315
330 330 330 330 330 330 331 331 331 330 330 329 327 326 326 325 324 322 322 325 323 316 315 317 320 321 321 317 314 312 310 308 308 308 308 307 306 306 305 306 308 311 313 314 314 314 313 312 311 311 312 312 312 312 313 315 316 316 317 318 318 317 316 317 319 319 318 316 313 312 312 312 311 311 313 313 309 305 304 304 304 304 306 312 315
328 328 329 329 330 331 331 331 331 330 330 329 327 326 326 325 325 324 326 326 323 317 316 318 320 321 320 315 311 311 309 308 308 308 308 307 305 305 305 305 306 307 309 310 310 309 308 307 307 307 307 306 306 306 306 307 309 310 311 313 314 313 313 314 315 313 311 308 306 306 306 307 307 307 307 306 304 303 303 303 303 303 305 311 315
327 327 327 328 328 330 330 330 330 329 329 328 327 327 326 326 326 326 328 328 323 319 317 317 319 320 320 314 311 312 310 308 308 308 309 307 305 304 304 305 305 305 306 306 306 306 306 306 306 306 306 305 305 305 305 305 305 305 305 306 307 307 308 308 308 307 305 305 304 305 305 304 304 304 303 303 302 302 302 302 302 302 302 308 313
326 326 326 326 327 327 328 328 328 328 328 327 327 327 326 326 326 327 329 328 323 321 319 318 319 320 319 314 313 314 313 311 309 308 309 306 305 305 304 305 305 305 305 305 305 305 305 306 305 306 306 306 306 306 305 305 305 305 305 305 305 305 305 305 305 305 305 305 304 304 304 304 303 303 302 303 303 302 303 302 302 302 302 304 309
325 325 325 325 325 325 325 326 326 326 326 326 326 326 327 326 327 329 330 327 323 322 321 320 319 320 317 314 314 315 315 314 310 309 308 306 305 305 305 305 305 305 305 305 305 305 305 305 305 305 305 305 306 306 305 306 305 305 305 305 304 304 305 304 304 304 304 304 304 303 303 303 303 303 303 303 303 303 303 303 303 303 303 303 305
326 325 325 325 325 325 325 325 325 326 325 326 326 325 326 328 329 330 330 328 325 323 321 319 318 317 315 315 315 316 317 315 311 309 308 306 306 307 306 306 306 306 306 306 306 306 305 305 305 305 305 305 305 305 305 305 305 305 305 305 305 304 304 304 304 304 304 304 304 304 304 304 304 305 304 304 304 304 305 305 305 306 306 305 305
326 326 325 325 325 324 325 325 325 325 325 325 325 325 326 329 331 331 330 328 325 322 321 319 317 315 314 316 316 316 317 318 313 310 308 307 307 307 307 307 307 307 307 306 307 307 307 307 306 306 306 305 305 305 305 305 305 305 305 305 305 305 305 306 305 305 305 305 306 306 306 306 307 307 306 306 305 306 307 307 307 308 308 307 307
326 325 323 324 324 323 324 324 324 324 325 325 325 325 325 327 329 330 330 328 324 321 320 320 317 315 315 315 315 315 316 318 316 311 309 307 307 308 308 308 308 307 307 307 307 308 308 309 308 308 308 307 307 307 306 306 306 306 307 307 307 307 307 307 307 307 307 307 307 307 307 307 309 308 308 308 307 308 308 308 308 308 308 307 307
324 323 322 321 320 321 321 321 321 322 324 327 327 326 325 325 327 329 330 330 327 322 320 319 318 316 316 315 315 316 316 318 318 314 310 308 307 308 308 308 308 308 307 307 308 308 308 309 309 309 309 309 309 309 308 308 308 307 308 307 308 308 308 308 308 308 308 307 308 308 308 308 308 309 309 309 310 309 309 309 309 309 308 308 307
321 320 319 318 318 319 319 319 320 321 321 324 327 328 327 325 326 327 329 329 328 324 320 319 318 317 317 315 314 316 317 318 319 316 312 310 309 310 311 311 311 310 309 308 308 308 308 308 309 309 310 309 309 309 309 309 308 308 308 308 308 308 308 308 308 308 308 308 308 308 308 308 308 308 309 309 310 310 311 310 310 309 309 308 308
321 320 321 322 323 322 320 320 320 320 320 321 323 326 327 327 327 326 327 328 328 325 322 321 320 318 317 315 315 317 317 318 319 317 314 312 311 312 313 314 314 313 313 312 311 310 310 309 309 310 311 311 311 311 311 310 310 310 310 310 310 310 310 310 309 308 308 308 308 308 308 307 307 308 308 308 309 310 310 310 310 310 309 308 308
323 323 325 325 325 323 322 322 321 322 323 322 322 324 326 327 327 326 326 326 326 325 324 323 322 319 319 318 316 317 318 319 319 318 316 314 312 312 313 314 315 315 315 315 314 314 313 312 312 314 315 315 315 315 314 314 314 314 315 315 315 315 315 314 314 313 312 311 311 311 310 309 308 307 308 308 308 309 309 310 310 309 309 308 308
323 324 325 324 325 323 323 323 323 323 324 324 324 324 324 326 326 326 326 325 325 325 324 324 322 320 320 320 318 316 317 319 320 319 317 316 314 313 313 314 315 316 316 316 316 315 315 315 315 316 316 316 316 316 316 316 316 316 316 316 317 317 317 317 317 316 316 315 315 315 314 313 311 309 308 308 308 308 308 309 310 309 309 309 309
323 324 324 324 325 324 324 324 323 324 325 325 325 325 324 325 325 326 326 325 325 325 325 324 323 321 320 321 319 316 316 319 321 320 318 317 316 315 315 315 315 316 316 316 316 316 316 315 316 316 317 316 316 316 316 317 316 317 317 316 317 317 317 317 317 317 317 317 317 317 316 316 315 313 310 309 309 308 308 309 309 310 310 310 311
321 321 321 322 323 323 323 323 322 322 322 323 324 324 324 325 325 326 326 325 325 325 325 324 323 322 321 320 319 317 316 319 321 320 318 317 317 316 316 316 316 317 316 316 316 316 316 316 316 317 317 317 317 317 317 317 316 316 316 316 317 317 317 317 317 317 317 317 317 317 316 316 316 315 313 311 311 310 310 309 309 309 310 310 311
317 316 316 317 319 321 322 321 320 318 318 320 322 323 324 324 324 325 325 324 324 324 325 324 323 322 320 319 319 318 317 318 320 319 318 317 317 316 316 316 316 317 317 317 317 316 316 316 315 316 316 317 317 317 317 317 317 316 315 315 316 317 317 317 316 316 316 317 317 317 317 316 316 316 315 314 313 313 311 310 309 309 309 310 310
316 314 314 315 318 320 322 322 321 320 318 318 319 321 323 324 324 324 324 323 323 323 324 324 323 322 321 320 320 319 319 319 319 319 318 317 317 317 317 317 317 317 317 317 317 316 316 315 315 315 316 316 317 317 318 317 317 316 314 313 314 315 316 316 315 315 316 316 316 316 316 316 316 315 315 314 314 313 312 311 309 309 309 309 309
314 315 315 316 318 320 321 322 322 322 321 320 319 320 322 323 324 324 324 323 323 323 323 323 322 322 322 321 320 320 320 319 319 319 318 317 317 317 317 317 316 316 317 316 315 316 317 316 315 315 315 315 316 317 318 318 317 316 313 312 313 314 315 316 315 315 316 316 317 317 317 316 315 315 314 313 313 312 312 311 310 309 309 308 309
313 313 314 314 315 316 317 318 319 319 320 320 320 321 322 323 323 323 323 322 322 322 322 322 321 321 320 319 319 320 319 318 318 318 317 316 317 317 316 316 316 315 315 314 314 315 316 316 315 314 314 314 316 317 318 318 317 316 314 314 314 315 315 316 316 316 316 316 317 317 317 316 315 314 313 312 312 311 311 310 310 309 308 309 309
310 311 311 312 312 312 313 314 315 315 315 315 316 318 319 320 321 321 321 321 322 322 322 322 321 321 319 318 318 319 318 317 317 316 316 317 317 317 316 315 316 315 314 314 315 315 316 315 315 315 315 316 317 318 318 317 317 316 315 315 315 315 315 316 316 317 316 317 317 317 318 317 315 314 313 312 311 310 310 310 309 309 308 308 308
309 309 310 310 310 310 310 310 311 312 311 311 311 312 313 315 316 317 318 319 320 320 321 321 320 320 319 318 317 317 317 317 316 316 318 319 318 317 316 316 316 316 315 316 316 317 316 315 315 316 316 316 317 316 316 316 315 315 315 315 315 315 316 316 317 317 317 318 317 317 318 317 316 314 313 312 310 310 309 310 310 309 308 307 307
306 307 308 308 308 308 308 308 309 309 309 309 308 309 309 310 311 312 313 314 315 316 317 318 320 320 319 318 318 318 318 318 318 318 319 319 317 317 317 317 316 316 317 317 317 316 315 315 314 315 315 316 316 315 315 315 315 315 316 315 315 314 313 313 314 315 316 318 318 318 318 317 315 313 312 311 310 309 310 311 310 309 308 307 306
304 305 306 307 307 307 307 307 308 308 307 307 307 307 307 308 308 309 309 310 310 310 311 313 315 318 318 318 318 319 319 319 319 318 318 318 317 316 315 314 314 315 315 316 315 315 314 314 313 314 315 315 315 315 315 315 314 314 313 311 309 307 306 306 306 308 312 315 317 317 317 316 314 313 312 311 310 309 310 310 309 308 307 307 306
301 303 305 306 306 306 306 307 307 307 307 306 306 307 307 307 307 307 307 308 308 308 309 310 311 313 313 313 314 315 315 317 317 317 316 315 313 313 313 313 313 313 314 314 314 314 314 314 314 314 314 314 313 313 313 312 310 308 306 305 303 302 301 302 303 306 309 313 315 316 316 315 313 312 311 310 309 309 310 309 308 307 306 306 305
300 300 301 303 304 305 305 306 306 306 306 306 306 306 306 306 306 306 307 306 307 307 308 309 309 309 309 309 309 310 311 314 315 315 314 312 312 312 312 312 312 313 313 313 313 314 314 314 314 314 313 312 311 310 309 307 306 305 304 303 302 302 302 302 302 304 307 311 314 315 315 314 312 312 310 309 308 309 309 309 308 306 305 305 304
300 300 300 301 301 302 303 304 306 306 306 306 306 306 306 306 305 306 306 306 306 307 307 307 308 308 308 308 308 308 310 313 314 312 310 310 311 311 311 310 311 311 311 312 312 312 312 311 310 309 308 308 307 306 306 305 305 305 305 305 304 304 303 303 303 303 304 309 312 314 314 313 312 312 310 308 308 309 309 308 306 305 305 305 305
301 301 301 301 301 301 301 302 303 305 306 306 306 305 305 305 305 305 305 305 305 306 306 306 307 307 307 307 308 309 309 310 310 309 309 308 307 307 307 307 308 308 308 308 308 307 306 305 305 304 305 306 306 307 307 307 307 307 307 307 307 306 305 305 304 304 305 308 311 312 312 312 311 310 309 308 308 308 307 306 305 305 306 305 305
299 299 300 300 300 301 301 301 301 302 303 303 304 305 305 306 306 306 305 305 305 305 305 306 306 306 306 307 308 308 309 309 309 308 308 307 304 303 303 304 304 304 304 304 303 303 303 304 304 304 305 306 307 309 309 309 308 309 309 309 309 308 308 307 305 306 308 309 310 310 310 310 309 309 308 308 307 307 306 305 305 306 305 305 304
298 298 297 297 298 298 300 301 301 301 301 301 302 303 304 305 306 306 306 306 305 305 305 305 305 305 306 306 307 308 308 308 308 308 307 306 304 303 303 302 302 302 302 302 303 303 303 304 304 305 305 307 309 310 310 310 310 310 310 310 310 309 309 308 306 306 307 308 309 308 308 308 308 307 307 307 307 306 306 305 305 305 304 303 302
298 297 297 297 297 297 297 298 299 300 300 301 301 302 302 303 304 305 306 306 305 305 305 305 305 305 305 305 306 307 308 308 308 307 307 306 305 304 304 303 303 303 303 303 303 302 302 303 303 304 305 308 309 310 310 310 310 310 310 310 310 309 309 308 306 305 305 305 306 307 308 307 307 306 306 306 305 305 305 304 304 303 302 301 300
297 297 297 297 297 297 297 296 297 298 299 299 300 301 301 302 302 303 304 305 304 304 305 306 306 305 305 305 305 306 307 307 307 307 307 307 306 305 305 305 305 305 304 304 304 304 303 303 302 302 303 304 305 307 309 310 311 310 310 310 310 309 309 308 306 305 304 304 305 306 306 306 306 305 305 304 304 304 303 302 302 300 300 299 298
297 297 297 297 297 297 297 297 296 297 297 298 299 299 300 301 302 302 302 303 303 303 304 304 305 305 306 306 305 305 306 306 306 306 306 306 306 306 306 306 306 306 306 306 306 305 304 304 303 302 302 302 303 306 309 310 310 310 309 309 308 308 308 307 305 305 305 305 305 305 305 304 304 304 303 304 303 303 302 300 299 298 297 297 296
296 296 296 296 297 296 296 296 296 296 297 297 297 298 298 299 301 301 302 302 302 302 302 303 303 304 305 305 305 305 305 305 305 304 304 305 305 306 307 307 307 307 307 306 305 304 303 303 303 302 302 303 305 308 310 309 307 306 305 306 306 307 307 307 305 305 305 305 304 304 303 303 302 302 302 302 301 299 298 297 296 295 295 295 295
296 296 296 296 296 296 296 296 296 296 297 297 297 297 298 298 299 300 301 301 301 301 302 302 302 303 303 304 304 305 305 305 305 304 304 304 304 305 305 306 306 306 305 304 303 303 303 303 302 302 303 303 305 308 308 306 304 303 303 303 305 307 307 306 305 304 304 303 303 302 301 300 299 299 298 298 297 296 295 295 295 295 295 294 294
296 296 296 296 296 296 296 296 296 296 297 297 297 297 297 297 297 298 299 300 301 301 302 302 302 302 302 303 303 304 304 304 305 305 304 304 304 304 304 304 304 304 303 303 303 302 302 303 303 303 304 305 306 308 307 305 303 303 302 302 304 306 306 305 304 303 302 300 299 298 297 296 295 295 295 295 295 295 294 294 294 294 294 294 294
295 295 295 295 295 295 296 296 296 296 296 297 297 297 297 297 297 297 298 298 299 300 301 301 302 302 301 302 302 302 303 303 304 304 304 304 304 304 304 304 304 303 303 302 302 302 302 303 303 304 305 306 306 306 306 304 303 303 302 303 305 305 305 303 302 300 298 296 295 295 295 294 294 294 294 294 294 294 294 294 293 293 293 293 293
294 294 294 294 294 295 295 296 296 296 297 297 297 297 297 297 297 297 297 297 298 299 300 300 301 301 302 302 302 302 302 302 303 303 303 303 303 303 304 304 304 303 303 303 302 302 303 303 303 304 306 305 304 303 304 304 303 303 304 304 304 304 302 300 298 297 296 295 295 295 295 294 294 294 294 293 293 293 293 293 293 293 292 292 292
293 293 293 293 293 294 294 294 295 295 296 296 296 296 297 297 297 297 297 297 297 297 298 299 300 300 301 302 302 302 302 302 302 302 303 303 303 303 303 303 303 303 302 302 302 302 303 303 303 303 304 304 303 304 304 304 304 304 304 304 303 301 299 297 296 295 295 295 295 294 294 294 294 293 293 293 293 293 293 293 292 292 292 291 291
292 293 293 292 293 293 293 293 294 294 294 295 296 296 296 296 296 297 297 297 297 297 297 298 298 299 300 301 301 302 302 302 302 302 303 303 303 303 303 303 302 302 302 302 302 302 302 302 302 303 302 302 303 305 305 304 304 304 303 302 300 298 296 295 295 295 295 295 295 294 294 294 294 293 293 293 293 293 293 293 292 292 292 292 292
291 292 292 292 292 292 292 292 292 292 293 293 294 295 295 295 296 296 296 297 298 298 297 297 297 298 298 299 299 300 301 301 302 302 302 302 303 303 302 302 302 302 302 302 302 302 302 302 303 302 302 302 304 305 305 304 303 302 301 300 298 296 295 295 295 295 295 295 295 294 294 293 293 293 293 292 293 293 293 293 293 293 293 292 292
Wind_Speed
31 30 30 29 30 31 30 29 28 27 27 26 25 22 19 16 16 16 15 15 13 11 11 9 8 7 7 6 4 2 1 1 2 2 2 4 6 8 10 10 9 9 10 11 11 12 12 11 9 10 10 10 9 10 10 11 12 12 12 13 13 15 15 15 15 14 14 14 13 10 7 7 8 8 7 7 6 6 7 8 10 12 13 13 13
31 31 32 31 32 32 31 30 30 29 28 28 26 23 20 18 18 18 18 17 14 13 12 10 8 6 6 7 6 3 1 3 4 4 2 4 6 7 8 9 9 11 12 12 12 10 10 9 9 10 10 9 10 10 11 12 12 13 13 14 14 15 15 14 14 13 12 12 11 8 5 5 6 6 6 5 4 3 4 6 8 11 13 13 11
33 34 34 33 33 34 33 32 31 29 29 30 27 24 23 21 20 22 21 18 17 16 14 12 10 8 6 7 7 4 2 3 4 5 3 3 7 8 7 7 8 9 11 11 10 8 7 7 7 7 7 7 8 9 10 11 12 12 12 12 13 14 13 13 14 14 13 11 9 7 6 6 5 3 2 2 2 2 3 4 6 8 10 11 10
35 36 36 34 35 35 34 34 33 31 32 33 31 28 25 24 24 25 23 19 18 18 16 14 13 11 9 8 7 5 3 4 4 3 2 3 6 8 9 9 8 8 9 8 7 6 6 6 6 6 5 6 6 7 9 10 11 11 10 10 11 11 12 12 13 14 13 10 6 4 5 5 3 2 4 3 2 2 3 4 5 5 6 7 8
38 38 37 37 38 38 36 36 35 35 35 35 34 30 26 26 27 26 23 20 19 18 17 16 15 14 12 11 10 8 7 7 6 5 6 6 6 8 9 10 10 10 10 10 9 8 8 7 6 6 6 6 6 7 8 9 10 10 10 9 10 10 10 11 10 11 11 9 6 3 3 2 3 5 5 4 3 4 4 4 4 4 3 3 5
40 40 38 38 40 39 37 37 37 37 37 35 33 29 28 29 28 26 24 22 19 18 17 16 15 13 10 10 10 9 9 8 6 7 9 10 10 10 10 10 10 10 9 9 8 8 8 8 7 6 6 7 7 7 7 7 7 8 9 8 9 9 9 9 9 10 10 8 6 5 4 3 4 7 6 5 5 5 4 4 4 3 2 2 3
37 39 39 39 39 39 38 39 39 38 36 35 31 29 30 31 29 26 24 23 21 18 18 17 16 13 9 7 6 6 8 8 6 7 9 10 11 11 11 10 9 9 8 7 7 8 7 7 6 5 6 7 7 6 7 6 6 6 7 7 7 7 7 6 6 8 8 5 3 5 6 6 7 8 8 8 7 5 5 6 5 4 3 3 3
38 39 39 39 39 38 39 40 39 37 36 34 30 30 32 31 28 27 25 24 23 20 18 18 17 14 11 10 8 8 8 7 8 9 8 8 9 10 10 10 10 9 9 8 8 8 7 6 4 3 5 6 6 6 5 5 4 3 4 4 4 4 4 4 4 4 5 4 4 5 6 6 7 8 9 8 7 5 5 5 3 3 3 4 4
40 40 40 40 39 38 37 38 38 36 35 34 31 29 30 30 28 27 26 25 25 22 19 18 18 15 13 12 12 11 10 8 10 11 9 8 7 8 9 11 11 11 10 9 8 7 6 5 4 4 5 5 5 4 4 2 2 2 2 2 2 1 1 2 3 4 4 4 4 3 4 5 6 6 6 5 4 4 5 6 6 5 4 3 4
37 37 38 39 39 38 37 37 37 36 35 34 32 29 28 28 28 28 28 26 26 24 21 19 20 18 15 14 14 14 12 12 13 12 10 8 7 7 8 10 10 10 9 9 8 7 6 4 4 4 6 6 5 4 3 1 2 3 4 4 5 4 4 2 0 1 1 1 1 1 1 2 3 4 4 2 3 6 9 9 9 9 9 7 4
36 35 34 35 37 38 38 37 37 36 36 35 33 30 29 28 28 29 29 28 27 26 23 21 21 20 17 16 16 15 14 14 15 13 10 9 8 8 8 9 9 9 9 10 9 7 6 4 3 4 4 4 3 3 2 2 2 3 4 3 4 4 4 5 5 4 4 3 2 1 0 1 2 3 3 3 6 9 10 9 8 8 8 8 7
34 32 30 31 34 36 37 36 35 36 36 36 34 32 31 30 29 29 30 29 29 28 26 23 22 21 19 17 16 16 14 14 14 11 10 10 9 9 10 10 10 10 11 11 10 8 6 4 3 4 4 3 3 3 3 3 3 3 3 3 3 3 3 4 4 4 4 2 0 1 2 2 3 4 4 6 8 8 8 8 8 6 6 7 7
30 29 28 29 32 35 35 35 35 35 35 35 35 34 32 31 31 31 31 31 31 30 28 26 24 23 20 17 16 16 14 13 13 11 10 10 9 9 10 11 11 11 11 11 10 9 7 7 7 7 8 8 8 7 7 6 5 5 5 5 4 4 4 4 3 2 1 1 1 1 2 2 3 4 5 6 6 6 6 7 7 6 5 7 7
26 26 26 28 30 33 34 35 34 33 33 34 34 34 33 33 33 33 33 33 33 33 31 28 27 25 20 17 16 16 14 12 12 12 10 10 9 9 10 10 10 11 11 11 11 10 10 9 9 10 11 11 11 11 12 11 10 9 8 7 6 5 5 4 4 3 2 1 1 1 1 1 2 3 3 4 4 5 5 6 6 5 5 5 5
20 22 23 25 26 28 30 31 32 32 31 32 34 34 34 35 36 36 36 36 36 35 33 31 29 25 20 17 16 16 14 12 12 11 10 11 12 12 12 12 11 11 11 12 11 11 11 10 10 10 11 11 10 11 11 11 11 10 10 8 8 7 6 5 5 4 3 2 2 2 1 1 2 2 3 3 4 4 5 6 7 6 6 5 5
14 15 15 17 19 21 23 25 27 28 29 32 34 35 36 37 38 38 38 38 38 36 34 31 26 21 17 17 17 17 15 12 12 13 12 13 16 16 16 15 14 13 13 13 13 12 12 12 12 12 12 11 11 10 10 10 10 9 9 8 7 7 7 6 5 5 5 4 4 3 3 3 3 3 4 4 5 6 7 7 8 8 7 7 6
13 11 12 15 16 16 18 20 22 24 27 31 34 36 37 38 40 40 39 40 40 40 37 31 26 21 19 21 20 19 18 14 13 14 15 18 19 18 18 17 16 15 15 14 15 14 14 14 14 14 13 12 12 11 10 10 10 9 9 9 9 9 9 8 7 7 7 6 6 5 5 4 5 6 7 7 7 9 9 9 9 10 10 9 8
16 14 16 17 17 17 18 19 20 22 23 26 30 34 36 37 38 39 39 39 40 39 37 33 29 24 23 25 23 20 21 19 14 14 17 21 22 21 20 19 18 17 16 16 16 15 15 15 15 14 14 13 12 12 12 11 11 10 10 10 10 10 9 9 9 8 7 7 6 6 5 5 7 8 8 8 8 9 9 10 10 11 11 11 11
19 20 20 20 18 18 17 16 16 17 18 20 22 27 32 35 37 38 40 40 39 36 35 33 32 27 24 26 26 22 23 25 18 15 19 23 23 22 21 20 19 18 17 17 16 16 16 15 15 15 14 13 13 12 12 12 12 11 10 10 9 9 8 8 8 7 6 5 5 5 5 5 6 7 7 7 7 8 8 9 10 10 11 12 12
21 22 21 19 18 16 14 11 11 11 12 13 15 21 28 32 35 37 40 42 40 38 37 37 36 30 25 28 30 26 26 29 25 17 18 23 24 23 21 20 19 18 17 17 16 15 15 14 14 14 14 14 13 12 12 11 11 10 10 9 8 7 6 6 5 4 4 3 2 2 3 3 3 4 4 5 5 6 6 7 8 9 10 11 12
18 18 17 17 16 13 10 8 7 7 6 6 7 12 19 26 31 33 36 39 38 35 36 37 34 30 27 30 31 27 26 30 30 23 18 21 23 22 21 19 18 17 17 16 14 14 13 12 12 12 12 12 12 12 11 11 10 10 9 9 8 7 6 5 3 2 1 1 0 1 1 1 1 1 1 2 3 3 4 5 6 7 8 9 10
15 16 16 16 13 10 8 6 4 3 3 2 2 4 8 15 22 27 30 33 32 30 32 33 31 31 32 32 30 27 27 30 32 28 21 20 21 21 20 19 18 17 15 14 13 12 12 12 11 10 10 10 11 11 11 11 10 9 9 8 8 7 6 5 4 3 2 2 2 3 4 4 4 4 4 4 3 4 4 3 4 6 7 8 10
16 17 17 14 11 8 7 5 2 1 1 1 2 3 4 8 13 19 24 26 28 29 31 31 32 33 34 31 29 29 28 29 32 32 26 22 21 20 20 20 19 17 15 14 13 11 11 11 10 10 10 10 10 10 10 9 8 7 6 6 6 6 6 5 4 3 2 2 3 4 6 6 6 6 7 6 6 6 6 5 5 6 7 8 10
17 16 14 11 9 7 6 4 1 0 2 3 3 4 5 6 10 14 18 22 24 27 29 31 33 35 34 31 30 31 29 29 33 35 31 26 24 23 22 21 20 20 18 16 15 14 12 12 11 10 10 10 9 9 8 7 5 4 4 3 4 3 3 4 3 2 2 2 3 4 5 7 7 8 9 8 8 8 8 8 7 7 8 8 9
14 11 9 8 7 6 5 3 1 1 3 4 4 6 7 8 10 12 16 21 24 26 27 29 32 35 34 32 30 30 30 30 32 36 36 32 29 26 24 25 25 24 23 21 19 17 16 14 12 11 10 10 9 8 7 5 3 4 5 6 6 6 5 5 5 4 4 5 5 5 6 7 8 8 9 10 10 10 10 10 10 9 9 10 10
11 9 7 6 5 5 4 3 2 1 2 4 5 7 9 10 11 13 16 19 22 23 24 26 29 32 33 32 30 29 31 29 30 36 40 38 34 27 23 25 28 27 26 24 22 21 20 18 16 14 13 11 10 8 7 7 6 7 9 11 11 10 9 9 10 9 8 8 9 9 9 10 10 9 9 10 11 11 11 12 12 12 11 11 12
10 9 8 6 5 5 3 3 2 1 1 2 4 6 9 11 13 14 16 17 18 19 20 22 26 28 29 29 28 28 30 31 32 36 38 36 34 28 26 29 30 29 30 29 25 25 25 23 21 18 16 14 12 11 11 10 10 11 14 15 15 14 14 14 14 13 13 13 12 12 13 14 14 13 12 12 12 12 12 12 13 13 12 13 13
10 9 9 8 7 5 4 4 2 1 1 1 2 4 8 11 13 14 14 14 15 16 18 20 22 25 27 28 27 26 27 29 31 33 32 28 25 22 23 28 30 29 30 28 25 25 25 25 22 19 16 15 14 15 14 14 13 15 17 17 16 15 15 16 17 16 16 17 16 16 17 17 17 17 15 14 14 13 13 13 13 13 13 13 14
9 9 9 9 8 7 7 6 5 4 2 2 2 3 6 8 11 12 11 11 13 14 16 18 20 21 24 26 26 25 23 22 22 23 24 25 24 20 18 21 26 27 26 24 25 27 27 26 23 18 16 15 15 16 17 17 16 17 18 17 16 17 18 19 19 19 19 18 18 19 20 20 21 20 19 18 17 15 15 15 15 14 14 14 15
10 9 8 7 7 7 7 7 6 5 4 3 3 4 5 6 9 10 10 11 12 12 12 14 16 18 20 22 25 26 25 23 22 22 25 28 28 25 21 22 26 29 28 27 27 27 28 27 24 21 20 19 17 18 19 19 20 21 21 19 18 19 20 20 20 19 19 19 19 20 21 22 23 23 21 20 19 18 16 16 16 16 15 15 16
15 12 10 8 6 5 5 6 6 5 3 1 1 2 4 5 6 7 8 10 12 12 12 14 15 17 18 20 23 26 27 26 25 27 29 29 26 22 20 22 25 27 29 30 27 25 26 26 24 22 21 20 19 20 22 23 23 23 21 19 19 20 21 20 20 20 20 19 19 19 20 22 25 25 24 23 21 19 18 17 17 17 17 16 17
19 16 13 11 10 8 6 6 6 6 5 3 2 3 3 4 4 4 5 7 9 10 11 13 15 15 16 17 19 21 23 23 24 26 26 25 24 22 22 22 23 23 25 26 24 22 23 23 21 19 19 19 19 21 21 22 21 20 19 19 20 21 21 21 21 21 21 20 19 19 19 21 25 27 26 24 22 20 18 19 19 18 18 18 18
21 18 16 14 13 12 11 8 7 7 6 4 3 3 3 3 2 1 1 2 3 4 5 8 11 12 14 15 15 16 18 21 23 23 23 23 22 20 20 20 19 19 21 22 21 20 20 19 17 16 16 17 18 18 17 17 18 19 20 21 21 22 23 23 23 22 21 20 19 19 18 19 23 26 26 24 23 22 21 21 20 18 18 19 19
22 19 17 15 14 13 12 10 9 8 6 5 4 3 3 2 2 2 1 1 0 1 2 4 8 10 13 14 15 16 17 20 21 20 19 19 18 16 16 15 14 16 18 19 18 18 17 16 15 15 15 15 14 13 14 15 17 18 20 21 22 22 23 23 23 22 21 19 18 17 16 17 21 25 25 24 24 23 22 21 18 18 19 20 21
23 20 18 16 13 12 10 9 8 7 7 6 5 4 3 1 1 1 1 1 2 2 3 5 7 8 9 11 12 13 16 18 18 17 16 15 15 14 14 13 13 14 15 15 14 14 14 14 14 14 14 13 13 13 14 15 15 16 17 18 18 18 18 19 19 19 18 18 16 15 14 16 20 23 23 24 24 22 21 20 19 20 20 20 21
21 20 18 17 14 12 10 8 6 5 5 5 6 6 6 5 4 1 2 3 3 5 5 6 8 9 9 10 11 12 13 14 15 15 15 15 15 14 14 14 14 14 14 14 13 13 13 13 13 13 14 14 14 14 13 13 12 12 13 13 12 12 13 14 15 15 15 15 13 13 13 16 20 21 22 23 23 22 21 21 20 20 20 21 23
17 17 16 16 15 14 11 8 5 4 3 4 2 3 6 9 9 6 2 2 3 5 6 7 9 10 10 11 12 13 13 14 15 15 15 15 15 15 15 15 15 14 14 14 13 13 13 12 12 12 12 12 11 11 10 10 10 11 11 12 11 11 12 12 12 12 12 11 10 11 13 16 19 21 22 23 23 22 22 21 20 20 20 22 24
17 16 15 15 14 14 13 10 7 4 5 6 6 4 1 4 7 6 6 6 4 2 4 7 10 12 11 11 13 15 15 15 15 15 14 14 14 14 15 15 15 14 13 13 13 12 11 10 9 8 8 8 8 9 10 12 12 13 13 14 14 14 14 14 13 12 11 10 9 10 12 15 18 21 22 23 22 21 21 20 21 22 23 24 25
17 18 19 18 17 16 14 12 10 8 7 7 7 7 6 6 7 7 3 2 4 4 2 1 5 9 12 13 14 15 16 16 17 16 14 13 12 12 12 13 14 13 13 12 11 10 9 8 7 7 8 8 9 11 12 14 14 14 15 15 15 16 15 15 13 12 11 10 11 11 13 15 17 19 20 20 20 20 21 22 24 24 25 26 27
20 21 22 22 22 20 18 16 15 14 13 11 10 10 11 12 11 9 8 6 3 1 2 4 3 3 7 13 16 18 17 16 15 15 14 14 13 11 10 10 11 11 10 10 9 9 9 9 9 10 10 10 11 13 14 15 15 15 15 15 15 15 15 14 13 11 10 10 12 13 14 16 18 19 20 20 21 22 23 24 25 26 27 27 27
23 25 26 26 26 25 22 21 19 18 17 17 15 14 13 13 13 13 11 10 9 8 7 4 4 7 5 7 12 17 18 15 14 14 13 13 12 10 9 9 10 9 9 8 7 7 8 8 9 11 11 12 13 14 15 16 16 15 14 15 15 15 15 14 13 12 11 11 12 13 15 17 18 18 20 20 21 21 22 23 24 25 26 25 25
26 27 27 28 28 27 25 23 22 21 20 20 19 19 17 16 16 15 15 14 13 12 12 12 11 11 9 6 7 12 14 14 15 15 15 14 13 11 11 11 11 11 10 9 9 9 9 10 11 12 12 13 13 14 15 15 15 14 14 14 15 16 16 15 14 13 12 12 12 13 14 15 17 17 18 19 20 21 22 23 24 24 24 25 26
27 27 26 26 27 27 26 25 23 22 22 21 21 21 21 21 20 19 17 17 15 13 14 15 15 15 14 12 10 10 11 12 13 14 14 14 15 15 14 14 14 14 13 12 11 11 11 12 13 13 13 13 13 14 14 14 14 14 14 15 16 16 16 15 13 12 12 12 12 13 13 14 15 16 18 19 21 22 23 23 24 24 25 26 27
26 26 25 25 26 27 26 26 25 24 23 23 23 23 23 23 23 22 21 21 19 17 17 17 18 19 20 20 18 15 14 13 12 12 13 13 13 15 15 15 15 15 14 13 12 12 12 14 15 15 14 13 13 13 13 13 13 14 15 16 16 15 15 14 14 14 13 13 13 13 14 15 16 17 19 20 21 21 22 22 23 23 24 25 26
26 26 26 27 27 28 28 28 27 25 24 24 24 25 26 25 23 22 23 24 23 22 21 19 18 19 22 24 24 24 23 20 16 15 15 15 15 15 16 16 16 16 15 14 13 13 13 14 16 16 16 16 15 14 13 13 14 14 15 15 15 15 14 14 14 15 14 14 14 14 16 16 17 18 19 20 20 20 20 20 21 21 22 23 24
27 27 28 28 29 30 30 30 30 28 26 25 24 24 26 27 26 24 23 23 23 24 24 23 21 20 20 21 23 25 26 27 28 27 24 21 21 19 18 18 18 17 16 15 14 14 14 15 17 17 17 17 16 15 13 13 14 15 16 17 16 15 15 14 14 14 14 13 14 15 16 16 17 17 17 18 18 18 19 19 19 20 21 22 24
30 30 29 30 31 32 32 33 32 31 29 28 27 25 25 27 28 27 25 24 23 23 24 25 25 24 24 23 23 23 23 24 28 30 27 25 24 22 21 21 20 18 16 15 15 16 16 18 18 17 15 14 13 13 13 14 15 16 17 17 16 14 14 13 13 13 12 13 13 13 14 14 15 15 16 17 17 17 18 18 19 21 22 24 25
30 30 29 30 31 33 34 36 35 34 32 31 31 29 27 27 28 28 27 27 27 25 24 23 23 23 24 25 26 26 25 23 23 24 24 24 23 22 22 22 22 21 19 18 18 19 18 18 17 14 12 11 12 14 15 16 16 17 16 15 13 12 12 12 12 12 12 12 12 12 13 13 14 15 15 16 16 17 18 19 21 22 23 23 23
30 30 30 30 31 33 34 37 38 37 36 36 34 32 30 29 28 28 27 28 28 29 29 27 24 21 21 21 22 24 25 25 26 26 25 24 22 21 21 21 21 20 19 18 19 19 17 16 15 13 12 13 13 13 15 15 15 14 13 11 11 11 11 12 12 12 12 11 11 11 11 12 13 14 15 16 17 18 19 20 20 20 20 21 21
30 30 31 31 32 32 34 36 37 37 37 37 37 36 34 32 30 29 28 28 28 29 30 31 30 27 23 21 20 19 19 21 24 27 27 26 25 24 23 21 19 18 17 16 17 16 15 14 14 14 16 17 15 12 12 13 13 12 11 11 11 12 12 12 12 11 11 10 10 11 11 13 14 15 16 18 18 18 18 18 18 19 20 21 22
30 30 30 30 31 31 33 35 36 36 36 37 38 37 37 36 33 30 29 27 25 26 28 31 31 31 30 26 24 23 21 19 20 22 25 26 26 25 24 21 19 18 17 16 16 16 15 14 14 15 16 16 15 13 12 12 11 12 12 12 12 12 12 12 11 11 10 11 11 12 13 14 15 16 16 16 16 16 17 18 19 20 21 22 23
Wind_Direction
195 194 193 192 192 192 191 190 189 184 182 184 181 176 177 177 175 177 179 179 182 185 186 189 188 189 194 192 181 182 216 271 275 290 262 234 220 211 211 214 216 207 198 196 197 200 209 218 221 223 229 229 230 232 231 232 238 240 236 232 232 235 238 237 242 246 242 243 246 243 243 242 245 252 269 285 282 277 273 270 269 265 262 259 257
197 196 192 190 190 190 192 191 189 185 186 189 186 181 181 181 180 180 180 182 190 192 180 171 168 168 175 177 175 179 228 282 302 313 283 218 216 216 212 213 211 204 201 201 202 204 207 213 216 219 223 224 225 223 220 227 234 235 233 232 230 232 236 237 236 235 232 234 233 234 253 265 265 266 270 276 265 266 279 285 283 273 266 260 257
197 196 192 190 189 190 191 191 190 189 189 190 189 187 185 184 183 182 180 183 193 192 178 168 168 171 175 179 185 193 212 242 282 312 308 202 203 206 207 211 209 206 206 207 206 200 193 198 209 216 220 221 223 224 222 226 232 235 234 234 234 232 232 233 228 226 228 228 227 246 276 286 289 290 312 327 290 292 327 333 322 298 276 262 256
194 194 192 190 190 192 193 191 191 191 190 190 190 192 189 186 183 180 179 181 187 186 175 170 171 173 181 185 191 199 199 205 231 275 264 206 204 205 208 212 215 221 223 221 218 213 209 210 217 224 230 227 220 221 226 228 230 237 241 240 242 242 239 237 232 226 227 224 220 253 291 301 324 3 5 360 316 312 337 351 354 335 300 271 262
190 190 190 191 192 194 194 192 192 192 192 192 194 196 192 187 183 179 177 178 183 184 176 174 174 175 183 187 192 199 197 199 212 213 199 201 210 210 214 219 224 232 238 240 242 243 244 238 235 235 233 227 212 210 220 226 227 232 238 239 241 245 242 239 235 228 229 227 226 256 320 352 10 356 352 360 335 322 328 342 355 2 348 296 270
190 189 191 193 194 193 193 193 194 193 195 196 198 198 193 189 185 180 181 182 185 186 182 182 183 183 189 188 191 202 203 205 221 222 206 205 213 217 224 230 234 236 234 233 232 234 242 242 242 241 232 223 212 208 214 218 222 222 224 229 234 238 238 240 242 240 243 238 234 262 289 304 325 329 327 325 321 317 316 324 326 343 356 303 273
191 191 192 195 196 195 194 194 195 195 197 198 200 200 195 191 188 186 187 189 192 192 188 190 194 197 205 203 199 209 213 211 213 216 212 212 218 222 222 221 222 228 223 211 199 201 213 221 225 230 224 219 211 207 203 205 214 213 206 210 222 231 233 241 246 246 255 259 251 271 278 279 294 307 309 308 310 308 312 316 307 302 307 294 289
194 194 195 196 198 197 195 195 196 198 199 200 202 200 198 196 194 193 194 196 200 201 196 195 200 204 209 214 215 217 225 221 195 186 193 203 212 215 212 209 209 217 220 210 194 190 195 197 193 191 198 204 203 197 190 190 199 196 185 193 207 217 218 223 226 229 249 261 254 258 267 278 293 304 307 306 309 320 343 351 336 316 311 308 306
197 196 196 198 198 198 197 196 197 200 202 205 204 200 201 203 200 198 200 202 204 205 202 200 204 209 214 219 219 217 221 212 188 179 183 189 197 205 207 211 212 213 215 209 195 189 191 192 177 159 165 175 180 179 174 168 164 157 144 137 142 144 199 231 233 231 239 248 252 256 267 287 302 312 318 315 329 354 2 356 349 358 11 354 322
198 197 197 197 197 197 198 197 198 203 206 208 206 203 205 207 206 204 205 208 208 208 206 203 205 210 217 222 221 219 213 199 186 180 180 182 188 197 200 205 205 198 190 185 184 187 191 198 192 169 161 162 171 183 198 203 149 141 130 99 84 79 75 68 79 214 213 216 216 216 287 317 318 325 334 342 349 346 343 341 347 11 42 55 41
198 198 197 196 197 197 198 200 202 205 207 208 209 208 209 211 211 209 209 212 212 210 210 206 205 210 216 221 223 222 211 198 192 185 180 183 189 193 188 188 192 184 170 167 173 185 193 201 197 185 182 180 189 200 214 223 157 146 139 107 92 94 89 79 79 94 103 102 104 117 345 317 310 318 325 317 322 329 335 343 354 20 54 75 79
199 199 199 199 199 198 200 202 203 204 207 210 212 213 213 213 215 213 213 214 212 211 210 206 205 208 214 220 223 221 212 202 199 190 184 188 189 190 184 176 178 179 175 171 173 179 183 179 163 160 170 175 183 183 186 196 194 189 185 167 156 147 123 108 103 108 111 105 98 257 269 274 285 299 299 299 311 323 335 347 356 22 71 100 105
201 201 201 203 202 202 202 202 203 206 209 212 215 217 216 216 217 217 215 214 210 208 207 204 203 207 214 221 220 217 211 204 199 192 188 191 189 186 180 174 172 174 172 169 166 160 152 142 133 129 130 131 131 130 131 136 143 155 165 161 152 143 140 142 145 148 164 238 243 235 268 283 293 302 303 308 321 336 348 358 5 20 79 124 134
204 204 206 207 206 206 206 206 208 211 213 215 218 219 220 220 219 218 216 215 212 211 209 205 203 205 212 220 219 214 206 195 191 189 188 187 181 171 166 166 167 162 159 156 152 148 145 139 133 129 128 128 127 123 120 118 118 120 125 130 132 135 141 148 154 168 176 173 148 147 272 301 314 323 330 341 358 3 9 24 29 41 85 126 145
202 206 209 210 212 213 213 212 213 215 218 220 221 223 224 224 222 219 217 215 212 210 206 202 200 201 208 214 218 218 206 188 185 186 184 178 166 155 151 151 154 151 147 148 147 146 146 143 139 135 132 132 133 130 124 120 117 116 118 124 131 133 135 142 148 150 145 134 118 103 79 60 34 22 21 23 24 21 23 32 39 61 90 107 126
184 196 205 212 215 218 220 221 221 222 223 224 225 227 227 227 224 219 215 212 208 204 199 194 191 192 204 211 215 221 214 194 187 184 179 170 159 150 145 144 146 146 144 142 141 142 141 139 137 136 134 134 134 132 127 120 116 114 114 117 121 119 117 122 125 120 115 110 102 94 75 66 62 56 48 37 33 29 30 36 43 54 66 76 91
171 192 213 218 218 219 224 229 232 233 232 230 229 230 229 228 223 218 215 214 212 210 205 199 194 190 200 209 212 221 223 209 194 187 178 168 160 153 150 150 149 147 145 141 136 136 135 133 133 132 132 132 131 129 125 119 115 113 111 110 110 108 106 107 104 100 101 100 96 88 79 76 71 61 50 42 40 34 31 35 39 42 43 45 48
176 189 205 216 219 219 224 230 236 241 242 239 236 234 231 227 222 219 218 216 214 210 201 196 195 191 197 209 212 218 228 222 205 192 184 173 166 163 160 157 156 153 150 148 143 137 133 130 129 128 128 129 128 126 122 120 117 114 110 107 104 103 103 103 102 98 94 91 88 84 81 77 70 61 50 42 37 31 27 27 28 28 28 29 29
180 185 195 206 213 216 221 228 236 243 247 246 244 241 236 231 227 225 223 222 215 204 197 198 201 199 201 210 211 214 226 227 217 201 193 182 173 170 168 164 165 165 162 159 155 148 141 136 132 130 129 128 126 124 123 121 119 117 114 109 103 101 99 97 97 99 94 87 82 80 76 67 63 60 53 42 31 20 18 19 19 17 19 21 19
178 184 191 199 205 210 212 216 225 232 240 243 242 243 241 237 234 230 229 229 222 213 210 210 210 210 211 210 210 215 225 228 222 211 202 194 184 178 176 173 172 173 171 171 169 163 157 150 145 143 140 138 136 133 131 129 128 128 126 125 122 117 112 104 96 95 94 93 85 76 71 63 57 57 53 45 29 14 11 14 12 8 11 13 11
170 179 186 192 193 191 186 183 189 196 211 226 230 237 240 239 237 234 233 233 231 224 216 214 218 224 220 211 212 221 227 228 225 219 212 207 199 191 187 185 183 181 178 177 176 174 172 168 161 157 154 151 150 148 147 145 144 145 143 142 143 143 141 138 135 138 144 135 85 315 297 289 290 318 5 14 6 359 358 6 2 359 4 5 2
165 174 181 183 176 166 161 159 164 171 176 193 220 236 235 237 237 237 236 235 235 231 220 221 232 233 220 212 215 224 229 228 226 223 219 215 211 206 203 203 199 194 189 184 179 177 179 181 177 171 165 161 158 157 157 156 156 159 160 159 162 165 167 168 170 190 226 259 288 302 301 291 280 278 284 292 307 319 324 331 338 343 349 350 350
158 165 170 168 159 152 152 149 150 188 301 304 306 295 252 236 234 236 237 234 235 233 225 227 235 227 219 218 220 224 229 228 226 226 225 220 215 213 213 216 215 209 205 201 195 188 183 184 184 179 172 168 163 160 159 159 161 166 170 173 176 176 176 176 174 186 214 257 291 306 311 306 296 289 289 292 296 302 307 308 315 324 329 333 337
149 152 151 146 142 141 139 139 146 302 311 299 297 293 270 249 239 236 237 232 229 228 225 227 227 221 220 224 222 222 225 226 227 227 227 225 219 213 212 216 219 218 217 215 211 205 198 193 190 187 183 179 178 178 178 176 178 192 210 216 213 209 203 196 189 196 223 257 283 298 307 309 305 298 295 298 302 303 305 302 300 302 308 316 325
147 143 135 129 130 132 134 140 155 306 297 285 274 269 260 252 247 243 239 233 229 228 228 227 224 221 225 226 224 223 223 228 234 230 227 229 224 218 217 217 218 221 221 220 219 217 212 205 199 200 206 207 209 215 216 216 229 251 263 265 258 254 259 256 252 255 264 273 281 289 296 299 301 301 295 295 299 301 300 296 293 294 298 308 318
149 144 140 142 142 146 156 159 160 211 277 283 274 263 253 243 241 243 242 238 238 237 234 230 227 227 228 225 223 225 224 230 240 233 226 227 224 221 227 228 224 225 225 224 223 222 220 215 209 209 219 225 232 246 257 264 274 285 290 287 272 260 260 263 265 268 272 277 283 286 287 288 292 296 292 288 292 296 295 293 293 293 295 302 310
140 136 137 143 142 148 156 146 131 107 80 293 282 270 260 252 245 245 244 244 244 240 234 230 229 228 225 222 224 229 227 229 235 230 224 225 226 225 231 235 232 230 230 227 226 227 225 222 220 218 221 228 239 254 267 274 280 294 300 294 281 267 261 261 267 269 268 272 279 282 283 283 286 288 287 285 287 291 292 291 290 291 293 297 303
131 129 133 138 140 149 153 151 163 165 26 341 318 284 265 261 260 258 254 251 247 238 230 227 228 228 227 226 228 228 224 222 224 222 219 224 231 231 233 238 237 235 234 233 235 239 237 231 231 233 238 244 249 256 264 271 279 295 303 298 287 278 273 273 277 279 273 270 273 276 278 279 280 282 281 280 282 285 288 290 290 291 293 295 301
115 121 133 142 146 154 158 162 177 198 232 269 301 289 269 262 264 266 266 263 253 242 233 232 235 236 228 221 218 213 210 210 213 217 221 228 238 244 248 251 243 236 236 237 238 245 246 237 234 243 251 251 252 259 267 268 272 286 295 292 287 286 287 285 284 284 280 275 273 273 274 275 276 277 277 277 278 279 283 287 289 291 293 294 302
87 98 114 130 138 148 157 162 166 173 198 223 233 251 255 255 259 263 266 264 254 245 241 239 240 237 226 217 215 214 216 220 222 230 241 245 246 248 251 250 241 233 231 232 235 244 246 238 237 246 250 248 251 259 262 259 264 277 283 281 280 283 284 283 282 282 281 278 275 274 274 273 273 273 273 274 274 274 278 283 286 290 291 292 300
73 79 89 102 109 122 141 151 151 147 143 165 236 267 266 257 256 258 258 255 247 243 247 247 244 242 237 230 225 226 231 232 229 236 246 247 244 242 239 236 232 228 227 229 237 245 242 237 243 252 252 251 254 256 256 257 264 272 274 273 274 276 276 278 280 281 282 280 276 274 272 270 268 268 269 270 269 268 271 276 282 286 286 288 298
63 69 77 82 84 86 94 116 133 133 119 96 49 5 331 302 278 261 250 241 239 242 244 245 244 245 244 238 233 236 240 237 234 238 243 243 241 239 236 233 232 231 230 234 241 241 236 239 249 254 251 251 254 255 257 262 266 269 270 273 278 280 282 283 282 282 283 282 280 276 272 268 265 264 265 266 263 260 263 271 278 282 283 289 299
52 54 61 66 70 75 81 93 112 120 115 99 84 71 44 18 8 346 267 230 241 244 236 234 233 233 236 234 231 234 237 235 234 236 237 239 239 234 231 233 234 233 233 234 235 236 236 241 246 247 246 248 252 256 260 265 268 270 274 279 282 285 287 287 285 284 282 282 282 278 275 272 264 258 258 261 259 256 260 270 276 278 282 290 297
45 45 48 49 52 64 76 86 100 110 111 108 113 108 90 77 69 60 56 51 348 236 203 210 215 217 222 223 223 226 230 230 230 231 230 229 224 219 219 222 220 220 222 223 225 229 233 235 237 240 243 246 250 255 260 265 271 275 279 283 286 288 289 288 288 286 284 284 283 279 280 277 263 255 256 257 255 255 262 270 274 275 280 287 292
41 41 42 40 37 45 56 67 82 97 104 112 124 113 87 94 141 165 191 162 169 202 202 190 190 195 197 200 205 213 219 221 218 216 212 206 203 203 205 205 203 205 208 212 217 222 224 226 230 235 240 246 252 258 265 272 279 284 289 292 295 295 294 294 293 291 289 288 285 281 281 275 263 257 255 252 250 253 261 266 269 273 279 285 291
33 34 36 35 35 34 31 29 35 54 74 92 113 109 83 62 59 66 247 239 213 209 210 201 193 189 187 186 190 197 202 200 195 193 194 195 197 198 197 198 199 201 204 208 211 215 219 225 232 240 248 255 260 266 274 283 290 295 300 306 310 309 307 305 303 299 295 292 289 283 274 264 258 256 251 247 248 254 261 265 268 273 281 288 292
18 20 23 27 30 29 23 12 357 349 348 351 27 97 80 58 51 59 65 335 273 231 218 214 207 200 195 191 193 199 199 195 192 192 193 195 198 201 203 206 207 208 213 217 221 226 231 236 242 247 254 259 265 274 285 297 304 305 309 317 322 324 325 323 320 315 309 304 299 290 276 263 256 252 248 248 252 259 264 267 269 276 283 289 292
355 354 355 360 5 9 8 4 353 325 301 301 304 304 2 35 22 33 68 55 19 299 233 226 217 212 208 201 198 201 203 203 200 197 198 206 214 218 218 218 218 221 224 227 230 233 235 238 242 249 258 268 278 289 298 306 311 313 316 321 324 328 333 332 329 326 321 318 310 296 280 266 257 252 251 253 257 262 265 268 271 278 285 289 290
343 341 338 338 338 338 339 340 340 333 315 298 290 283 264 268 306 320 325 27 47 65 80 185 220 220 214 207 204 205 206 209 209 208 213 219 221 218 217 218 220 222 224 225 227 228 232 240 250 260 271 279 285 292 297 302 307 311 315 319 323 328 333 333 329 322 317 313 304 291 279 267 259 256 257 259 262 265 269 272 277 284 289 289 288
330 328 326 325 324 320 317 315 319 321 318 312 301 285 267 262 270 279 280 282 272 192 96 63 24 302 221 207 210 212 213 215 218 223 226 221 214 211 212 215 215 215 220 224 228 235 244 253 260 266 271 277 282 287 290 294 299 304 307 311 316 322 326 326 322 315 305 297 288 281 277 272 268 267 269 270 271 272 273 276 282 287 288 286 284
317 315 315 315 313 312 310 307 305 303 301 301 300 294 284 275 270 264 261 266 273 271 262 260 309 316 286 222 215 215 213 214 217 220 218 215 216 219 218 217 216 215 219 226 234 249 259 265 271 273 274 275 278 281 285 287 290 293 297 302 308 314 318 316 312 306 300 293 284 277 275 274 275 276 276 276 277 277 278 281 283 283 281 280 281
305 305 306 306 304 303 302 299 296 294 292 291 291 290 287 283 279 272 263 261 270 277 272 266 271 275 267 249 228 216 210 206 205 206 208 211 217 219 218 222 227 228 234 244 254 262 270 276 280 282 281 279 279 280 281 282 284 287 292 297 302 306 309 309 305 301 298 293 286 279 275 274 275 275 277 280 282 282 282 281 279 279 280 283 287
300 300 301 301 300 298 296 293 290 288 286 285 284 283 281 278 277 276 269 261 260 263 264 264 267 264 255 247 240 227 218 213 208 207 209 212 216 216 215 219 225 231 240 247 254 261 269 277 285 289 287 283 280 280 280 280 284 291 295 297 300 302 302 300 297 293 289 287 283 280 277 276 276 276 277 278 278 277 276 277 279 283 286 289 290
296 295 296 297 296 295 294 291 289 285 283 282 281 280 277 273 272 273 270 264 261 260 256 253 256 259 257 251 245 237 229 224 222 223 222 219 216 215 215 218 222 229 236 242 252 265 274 282 288 290 289 287 282 277 276 281 289 296 297 297 298 298 295 292 289 287 284 283 282 280 277 276 275 274 274 273 273 274 276 280 284 287 289 290 292
295 294 295 294 293 292 290 288 286 285 283 280 279 279 277 272 269 271 271 268 266 265 259 253 250 254 258 256 252 246 239 232 231 238 243 242 238 232 225 224 227 232 240 249 258 267 274 280 284 286 288 287 280 271 270 280 291 296 297 299 297 293 288 286 286 285 285 285 286 283 279 275 274 273 273 275 277 281 284 287 290 291 292 294 295
298 297 296 294 292 290 288 285 284 283 282 279 275 275 276 273 269 267 267 266 266 265 262 257 252 249 251 252 251 250 249 244 244 249 254 254 250 244 237 234 237 241 247 256 263 269 274 276 278 283 284 276 267 263 268 280 288 292 295 295 291 285 282 286 289 290 289 290 287 282 278 277 277 279 280 283 286 289 291 293 293 294 294 293 293
299 298 296 293 290 288 286 285 282 279 279 278 274 270 270 270 268 265 262 261 261 260 259 257 254 251 251 251 249 250 252 248 245 246 249 249 247 246 245 244 247 250 255 262 268 270 272 274 279 286 285 272 265 271 279 282 285 288 290 287 281 279 284 290 292 290 289 287 282 280 280 281 283 286 287 288 289 289 290 290 290 290 290 290 291
300 298 295 292 288 285 283 282 280 278 278 277 274 271 268 267 266 265 263 261 259 257 256 254 252 251 251 251 250 249 250 248 242 239 239 241 242 243 244 244 246 251 258 265 266 264 265 269 276 283 282 273 273 277 278 278 280 283 283 278 274 278 285 287 286 284 282 281 280 281 283 285 286 287 286 285 286 287 289 291 292 292 291 292 293
299 298 295 292 289 286 284 281 280 279 278 276 274 272 270 268 266 265 265 264 260 257 256 255 252 249 245 244 245 242 240 241 241 239 237 235 234 235 237 239 242 249 254 257 259 260 262 266 270 273 276 279 281 277 272 272 274 273 271 268 269 274 274 273 272 272 274 276 280 283 286 287 287 287 287 288 290 292 295 296 296 296 296 296 297
301 298 294 291 288 286 283 281 279 278 277 275 273 271 269 269 267 265 266 267 264 262 259 256 254 251 247 244 245 243 236 231 233 235 235 234 233 234 236 239 242 245 244 247 253 258 260 261 262 266 275 284 284 272 263 264 264 260 257 258 262 264 262 261 263 267 273 281 287 291 292 291 291 291 292 295 296 297 299 299 299 301 302 303 306
306 301 295 290 287 286 284 281 280 279 277 273 270 267 266 265 265 264 263 261 260 261 261 258 255 253 251 249 249 251 248 241 234 232 233 234 234 234 235 237 239 238 237 242 249 252 253 254 256 262 273 278 271 259 255 256 252 248 248 251 254 255 257 260 265 272 281 288 292 295 294 293 294 294 296 298 301 304 306 307 308 309 311 313 316